FW2321 Weather Reports


Display with metric or nautical units.
time (UTC)temp
F
wind
direction
speed
MPH
gust
MPH
rain 1hr
in
rain 24hr
in
rain mn
in
humidity
%
barometer
mb
20260503235536 67 222 4.0 11.0 0.00 0.00 0.00 51 1003.4
20260503235034 67 234 3.0 15.0 0.00 0.00 0.00 52 1003.5
20260503234549 67 209 5.0 15.0 0.00 0.00 0.00 52 1003.4
20260503234036 67 232 6.0 15.0 0.00 0.00 0.00 50 1003.5
20260503233534 67 237 4.0 14.0 0.00 0.00 0.00 51 1003.5
20260503233045 67 224 5.0 14.0 0.00 0.00 0.00 50 1003.4
20260503232534 67 245 4.0 13.0 0.00 0.00 0.00 52 1003.6
20260503232034 67 182 5.0 13.0 0.00 0.00 0.00 52 1003.6
20260503231543 67 218 6.0 15.0 0.00 0.00 0.00 52 1003.6
20260503231034 67 208 4.0 15.0 0.00 0.00 0.00 52 1003.7
20260503230534 67 194 6.0 14.0 0.00 0.00 0.00 51 1003.6
20260503230105 67 210 4.0 13.0 0.00 0.00 0.00 52 1003.6
20260503225532 67 211 4.0 11.0 0.00 0.00 0.00 51 1003.6
20260503225034 67 257 5.0 11.0 0.00 0.00 0.00 52 1003.8
20260503224548 67 202 4.0 11.0 0.00 0.00 0.00 52 1003.7
20260503224036 67 234 4.0 12.0 0.00 0.00 0.00 51 1003.8
20260503223534 67 239 4.0 13.0 0.00 0.00 0.00 52 1003.8
20260503223048 67 225 6.0 15.0 0.00 0.00 0.00 51 1003.8
20260503222534 67 195 5.0 18.0 0.00 0.00 0.00 53 1003.9
20260503222035 67 208 6.0 18.0 0.00 0.00 0.00 52 1004.0
20260503221546 67 223 5.0 16.0 0.00 0.00 0.00 53 1004.0
20260503221034 67 216 7.0 16.0 0.00 0.00 0.00 53 1004.1
20260503220535 67 215 5.0 16.0 0.00 0.00 0.00 55 1003.9
20260503220047 67 213 5.0 21.0 0.00 0.00 0.00 52 1004.0
20260503215535 66 197 9.0 21.0 0.00 0.00 0.00 54 1003.9
20260503215034 66 207 7.0 18.0 0.00 0.00 0.00 53 1004.0
20260503214550 66 234 9.0 18.0 0.00 0.00 0.00 54 1003.9
20260503214038 66 236 8.0 16.0 0.00 0.00 0.00 53 1004.0
20260503213533 66 173 7.0 16.0 0.00 0.00 0.00 53 1004.2
20260503213044 66 218 6.0 20.0 0.00 0.00 0.00 54 1004.3
20260503212533 66 223 7.0 20.0 0.00 0.00 0.00 54 1004.2
20260503212035 66 208 6.0 20.0 0.00 0.00 0.00 54 1004.3
20260503211549 66 242 7.0 24.0 0.00 0.00 0.00 52 1004.3
20260503211038 65 196 9.0 24.0 0.00 0.00 0.00 54 1004.4
20260503210538 65 223 8.0 20.0 0.00 0.00 0.00 54 1004.4
20260503210051 65 213 5.0 21.0 0.00 0.00 0.00 54 1004.7
20260503205538 65 224 9.0 21.0 0.00 0.00 0.00 53 1005.0
20260503205039 65 234 6.0 20.0 0.00 0.00 0.00 53 1004.9
20260503204548 65 259 9.0 20.0 0.00 0.00 0.00 54 1004.9
20260503204034 65 206 6.0 22.0 0.00 0.00 0.00 54 1004.9
20260503203537 65 218 11.0 22.0 0.00 0.00 0.00 52 1005.0
20260503203103 65 275 5.0 21.0 0.00 0.00 0.00 56 1005.1
20260503202538 65 263 4.0 21.0 0.00 0.00 0.00 58 1005.2
20260503202041 64 199 10.0 21.0 0.00 0.00 0.00 57 1005.2
20260503201548 64 238 7.0 18.0 0.00 0.00 0.00 60 1005.3
20260503201038 63 263 10.0 22.0 0.00 0.00 0.00 59 1005.5
20260503200542 63 242 9.0 27.0 0.00 0.00 0.00 62 1005.6
20260503200043 63 215 11.0 27.0 0.00 0.00 0.00 60 1005.8
20260503195536 62 236 10.0 21.0 0.00 0.00 0.00 60 1005.8
20260503195035 62 214 10.0 21.0 0.00 0.00 0.00 63 1006.1
20260503194545 62 226 9.0 23.0 0.00 0.00 0.00 63 1006.2
20260503194038 62 237 14.0 24.0 0.00 0.00 0.00 61 1006.2
20260503193538 62 187 12.0 24.0 0.00 0.00 0.00 60 1006.3
20260503193046 62 201 10.0 23.0 0.00 0.00 0.00 59 1006.4
20260503192537 62 275 10.0 23.0 0.00 0.00 0.00 60 1006.5
20260503192037 62 221 7.0 23.0 0.00 0.00 0.00 59 1006.5
20260503191549 62 209 10.0 25.0 0.00 0.00 0.00 57 1006.5
20260503191034 62 213 13.0 28.0 0.00 0.00 0.00 55 1006.6
20260503190537 63 223 13.0 28.0 0.00 0.00 0.00 54 1006.6
20260503190058 63 203 7.0 23.0 0.00 0.00 0.00 57 1006.5
20260503185538 63 211 9.0 23.0 0.00 0.00 0.00 54 1006.7
20260503185038 63 227 11.0 25.0 0.00 0.00 0.00 56 1006.6
20260503184542 63 238 14.0 25.0 0.00 0.00 0.00 54 1006.6
20260503184038 64 188 9.0 19.0 0.00 0.00 0.00 56 1006.5
20260503183540 64 200 6.0 17.0 0.00 0.00 0.00 59 1006.7
20260503183043 63 151 7.0 26.0 0.00 0.00 0.00 55 1006.8
20260503182536 62 267 8.0 26.0 0.00 0.00 0.00 57 1006.8
20260503182038 62 230 15.0 26.0 0.00 0.00 0.00 53 1006.9
20260503181558 62 296 9.0 20.0 0.00 0.00 0.00 56 1006.9
20260503181034 62 202 11.0 23.0 0.00 0.00 0.00 55 1006.9
20260503180536 62 207 10.0 23.0 0.00 0.00 0.00 61 1007.0
20260503180054 61 215 9.0 24.0 0.00 0.00 0.00 59 1007.1
20260503175535 61 211 13.0 24.0 0.00 0.00 0.00 58 1007.2
20260503175035 60 192 11.0 23.0 0.00 0.00 0.00 61 1007.3
20260503174550 60 207 11.0 23.0 0.00 0.00 0.00 64 1007.3
20260503174034 59 232 11.0 22.0 0.00 0.00 0.00 65 1007.3
20260503173535 59 209 10.0 19.0 0.00 0.00 0.00 67 1007.5
20260503173044 59 202 9.0 19.0 0.00 0.00 0.00 68 1007.7
20260503172535 58 195 7.0 20.0 0.00 0.00 0.00 67 1007.7
20260503172033 58 200 9.0 25.0 0.00 0.00 0.00 68 1007.8
20260503171545 57 199 12.0 25.0 0.00 0.00 0.00 65 1008.1
20260503171035 57 194 9.0 25.0 0.00 0.00 0.00 67 1008.1
20260503170533 56 214 10.0 19.0 0.00 0.00 0.00 67 1008.1
20260503150533 54 242 10.0 21.0 0.00 0.00 0.00 69 1009.8
20260503131034 52 198 8.0 21.0 0.00 0.00 0.00 65 1010.7
20260503130534 51 273 7.0 19.0 0.00 0.00 0.00 67 1010.8
20260503110536 48 236 5.0 16.0 0.00 0.00 0.00 65 1010.4
20260503100105 46 247 4.0 14.0 0.00 0.00 0.00 66 1010.9
20260503081550 47 209 2.0 8.0 0.00 0.00 0.00 62 1011.8
20260503081037 47 227 2.0 11.0 0.00 0.00 0.00 63 1011.8
20260503080535 47 220 4.0 11.0 0.00 0.00 0.00 62 1011.8
20260503072535 47 216 5.0 10.0 0.00 0.00 0.00 60 1012.0
20260503072034 47 210 2.0 11.0 0.00 0.00 0.00 61 1012.0
20260503071544 47 232 4.0 11.0 0.00 0.00 0.00 61 1012.0
20260503071037 47 200 3.0 14.0 0.00 0.00 0.00 61 1011.9
20260503070535 47 226 4.0 14.0 0.00 0.00 0.00 60 1012.1
20260503060115 47 194 4.0 17.0 0.00 0.00 0.00 59 1012.5
20260503055036 47 261 4.0 12.0 0.00 0.00 0.00 59 1012.7
20260503054603 47 219 4.0 12.0 0.00 0.00 0.00 59 1012.7
20260503054039 47 227 3.0 12.0 0.00 0.00 0.00 59 1012.9
20260503053536 47 213 5.0 12.0 0.00 0.00 0.00 59 1012.8
20260503053048 47 207 3.0 11.0 0.00 0.00 0.00 59 1012.8
20260503052541 48 213 3.0 11.0 0.00 0.00 0.00 59 1012.8
20260503052040 48 188 4.0 11.0 0.00 0.00 0.00 59 1013.0
20260503051549 48 215 4.0 10.0 0.00 0.00 0.00 59 1012.9
20260503051037 48 208 4.0 10.0 0.00 0.00 0.00 59 1013.0
20260503050537 48 222 5.0 10.0 0.00 0.00 0.00 58 1013.1
20260503050053 48 209 4.0 8.0 0.00 0.00 0.00 59 1013.0
20260503045535 48 202 3.0 8.0 0.00 0.00 0.00 59 1013.1
20260503045037 48 214 4.0 10.0 0.00 0.00 0.00 59 1013.0
20260503044548 48 217 3.0 10.0 0.00 0.00 0.00 59 1013.1
20260503044037 48 201 3.0 10.0 0.00 0.00 0.00 59 1013.1
20260503043541 48 220 4.0 11.0 0.00 0.00 0.00 59 1013.1
20260503043042 48 215 4.0 11.0 0.00 0.00 0.00 59 1013.2
20260503042541 48 223 4.0 10.0 0.00 0.00 0.00 59 1013.3
20260503042038 48 175 3.0 10.0 0.00 0.00 0.00 60 1013.3
20260503041545 48 225 3.0 7.0 0.00 0.00 0.00 60 1013.3
20260503041036 48 208 3.0 6.0 0.00 0.00 0.00 60 1013.3
20260503040538 48 215 3.0 7.0 0.00 0.00 0.00 60 1013.3
20260503040043 48 212 4.0 8.0 0.00 0.00 0.00 60 1013.5
20260503035538 48 205 3.0 8.0 0.00 0.00 0.00 60 1013.4
20260503035038 48 223 3.0 8.0 0.00 0.00 0.00 60 1013.4
20260503034547 48 223 4.0 8.0 0.00 0.00 0.00 60 1013.4
20260503034037 48 219 2.0 6.0 0.00 0.00 0.00 60 1013.5
20260503033538 48 215 3.0 8.0 0.00 0.00 0.00 60 1013.5
20260503033044 48 198 2.0 8.0 0.00 0.00 0.00 60 1013.5
20260503032536 48 214 3.0 8.0 0.00 0.00 0.00 60 1013.6
20260503032034 48 214 3.0 7.0 0.00 0.00 0.00 60 1013.6
20260503031546 48 215 4.0 7.0 0.00 0.00 0.00 60 1013.7
20260503031034 48 228 4.0 8.0 0.00 0.00 0.00 60 1013.7
20260503030537 48 211 3.0 8.0 0.00 0.00 0.00 61 1013.7
20260503030049 48 179 2.0 6.0 0.00 0.00 0.00 61 1013.8
20260503025535 48 211 2.0 7.0 0.00 0.00 0.00 61 1013.9
20260503025036 48 223 3.0 8.0 0.00 0.00 0.00 61 1013.9
20260503024543 48 198 3.0 8.0 0.00 0.00 0.00 60 1013.9
20260503024036 47 200 2.0 6.0 0.00 0.00 0.00 61 1013.9
20260503023536 48 222 3.0 6.0 0.00 0.00 0.00 60 1014.0
20260503023050 47 202 3.0 6.0 0.00 0.00 0.00 61 1013.9
20260503022537 47 194 2.0 6.0 0.00 0.00 0.00 61 1013.8
20260503022040 47 202 2.0 4.0 0.00 0.00 0.00 61 1013.8
20260503021547 47 209 2.0 4.0 0.00 0.00 0.00 61 1014.0
20260503021038 47 204 2.0 4.0 0.00 0.00 0.00 61 1013.9
20260503020537 47 200 2.0 4.0 0.00 0.00 0.00 60 1013.9
20260503020046 48 202 2.0 4.0 0.00 0.00 0.00 60 1013.8
20260503015536 48 209 2.0 4.0 0.00 0.00 0.00 60 1013.7
20260503015036 48 207 2.0 4.0 0.00 0.00 0.00 59 1013.7
20260503014542 48 207 2.0 5.0 0.00 0.00 0.00 58 1013.6
20260503014037 49 207 2.0 5.0 0.00 0.00 0.00 58 1013.6
20260503013537 49 207 2.0 5.0 0.00 0.00 0.00 57 1013.6
20260503013041 49 205 2.0 4.0 0.00 0.00 0.00 57 1013.6
20260503012538 50 212 2.0 5.0 0.00 0.00 0.00 57 1013.5
20260503012036 50 203 2.0 5.0 0.00 0.00 0.00 56 1013.5
20260503011547 50 205 2.0 5.0 0.00 0.00 0.00 55 1013.5
20260503011037 51 198 2.0 5.0 0.00 0.00 0.00 55 1013.5
20260503010535 51 207 1.0 6.0 0.00 0.00 0.00 54 1013.5
20260503010048 52 208 2.0 6.0 0.00 0.00 0.00 53 1013.4
20260503005535 52 209 3.0 6.0 0.00 0.00 0.00 52 1013.4
20260503005034 52 217 2.0 6.0 0.00 0.00 0.00 53 1013.5
20260503004545 53 211 2.0 5.0 0.00 0.00 0.00 51 1013.4
20260503004038 53 212 2.0 5.0 0.00 0.00 0.00 51 1013.5
20260503003538 53 208 2.0 5.0 0.00 0.00 0.00 50 1013.5
20260503003043 54 202 2.0 5.0 0.00 0.00 0.00 49 1013.6
20260503002537 54 204 1.0 4.0 0.00 0.00 0.00 49 1013.7
20260503002034 54 205 2.0 7.0 0.00 0.00 0.00 48 1013.7
20260503001542 54 205 3.0 7.0 0.00 0.00 0.00 47 1013.8
20260503001035 55 219 3.0 8.0 0.00 0.00 0.00 46 1013.7
20260503000536 55 267 1.0 8.0 0.00 0.00 0.00 47 1013.6